Weather History for Yakima, WA

Change the Weather History Date:

Wednesday, May 2, 2012

  Actual Average Record
Temperature  
Mean Temperature 49 °F 53 °F  
Max Temperature 61 °F 68 °F 88 °F (1971)
Min Temperature 36 °F 38 °F 26 °F (1948)
Degree Days  
Heating Degree Days 16 12  
Month to date heating degree days 30 24  
Since 1 July heating degree days 5420 5706  
Cooling Degree Days 0 0  
Month to date cooling degree days 0 0  
Year to date cooling degree days 7 1  
Moisture  
Dew Point 27 °F    
Average Humidity 50    
Maximum Humidity 75    
Minimum Humidity 25    
Precipitation  
Precipitation 0.00 in 0.02 in 0.11 in (2007)
Month to date precipitation 0.02 0.04  
Year to date precipitation 4.23 3.13  
Snow  
Snow 0.00 in 0.00 in 0.00 in (2002)
Month to date snowfall 0.0 0.0  
Year to date snowfall 21.5 8.6  
Since 1 July snowfall 25.9 21.6  
Snow Depth 0.00 in    
Sea Level Pressure  
Sea Level Pressure 29.88 in    
Wind  
Wind Speed 3 mph (SSW)    
Max Wind Speed 14 mph    
Max Gust Speed 18 mph    
Visibility 10 miles    
Events      
T = Trace of Precipitation, MM = Missing Value Source: NWS Daily Summary

Daily Weather History Graph

Daily Weather History Graph

Search for Another Location

Airport:

Trip Planner

Search our weather history database for the weather conditions in past years. The results will help you decide how hot, cold, wet, or windy it might be!

Date:

Astronomy

May. 02, 2012 Rise Set
Actual Time 5:45 AM PDT 8:13 PM PDT
Civil Twilight 5:11 AM PDT 8:47 PM PDT
Nautical Twilight 4:29 AM PDT 9:30 PM PDT
Astronomical Twilight 3:40 AM PDT 10:18 PM PDT
Moon 4:20 PM PDT 3:32 AM PDT
Length of Visible Light 15h 36m
Length of Day
14h 28m
Waxing Gibbous, 84% of the Moon is Illuminated
May 2
Waxing Gibbous
May 5
Full
May 12
Last Quarter
May 20
New
May 28
First Quarter

Hourly Weather History & Observations

Time (PDT) Temp. Windchill Dew Point Humidity Pressure Visibility Wind Dir Wind Speed Gust Speed Precip Events Conditions
12:53 AM 45.0 °F - 32.0 °F 60% 29.87 in 10.0 mi Calm Calm - N/A   Overcast
1:53 AM 46.0 °F - 30.0 °F 54% 29.87 in 10.0 mi Calm Calm - N/A   Overcast
2:53 AM 39.9 °F - 30.9 °F 70% 29.89 in 10.0 mi Calm Calm - N/A   Clear
3:53 AM 37.4 °F 33.8 °F 28.4 °F 70% 29.89 in 10.0 mi SW 4.6 mph - N/A   Clear
4:53 AM 37.9 °F 35.5 °F 28.0 °F 68% 29.91 in 10.0 mi West 3.5 mph - N/A   Clear
5:53 AM 36.0 °F 33.3 °F 28.0 °F 73% 29.92 in 10.0 mi WSW 3.5 mph - N/A   Clear
6:53 AM 39.0 °F 36.8 °F 30.9 °F 73% 29.94 in 10.0 mi WNW 3.5 mph - N/A   Clear
7:53 AM 45.0 °F - 28.0 °F 52% 29.95 in 10.0 mi Calm Calm - N/A   Clear
8:53 AM 50.0 °F - 30.0 °F 46% 29.95 in 10.0 mi Calm Calm - N/A   Clear
9:53 AM 53.1 °F - 28.0 °F 38% 29.94 in 10.0 mi Variable 4.6 mph - N/A   Clear
10:53 AM 53.1 °F - 27.0 °F 37% 29.94 in 10.0 mi Calm Calm - N/A   Scattered Clouds
11:53 AM 57.0 °F - 25.0 °F 29% 29.93 in 10.0 mi South 10.4 mph - N/A   Clear
12:53 PM 57.9 °F - 25.0 °F 28% 29.91 in 10.0 mi Variable 4.6 mph - N/A   Mostly Cloudy
1:53 PM 60.1 °F - 25.0 °F 26% 29.90 in 10.0 mi Variable 4.6 mph - N/A   Scattered Clouds
2:53 PM 59.0 °F - 25.0 °F 27% 29.89 in 10.0 mi Variable 4.6 mph - N/A   Scattered Clouds
3:53 PM 60.1 °F - 25.0 °F 26% 29.87 in 10.0 mi SSE 9.2 mph - N/A   Mostly Cloudy
4:53 PM 59.0 °F - 24.1 °F 26% 29.86 in 10.0 mi Variable 3.5 mph - N/A   Scattered Clouds
5:53 PM 59.0 °F - 26.1 °F 28% 29.85 in 10.0 mi ESE 4.6 mph - N/A   Scattered Clouds
6:53 PM 57.9 °F - 25.0 °F 28% 29.83 in 10.0 mi SE 3.5 mph - N/A   Partly Cloudy
7:53 PM 55.9 °F - 26.1 °F 32% 29.82 in 10.0 mi SW 3.5 mph - N/A   Overcast
8:53 PM 54.0 °F - 28.0 °F 37% 29.81 in 10.0 mi Calm Calm - N/A   Overcast
9:53 PM 55.9 °F - 25.0 °F 30% 29.81 in 10.0 mi Calm Calm - N/A   Overcast
10:53 PM 55.9 °F - 25.0 °F 30% 29.79 in 10.0 mi SSW 6.9 mph - N/A   Overcast
11:53 PM 53.1 °F - 28.9 °F 40% 29.77 in 10.0 mi Calm Calm - N/A   Overcast